Wetterdaten: Mittwoch, 08.06.2016
Datum Zeit Auen-Temp. Temp gefhlt Luftfeuchte Luftdruck Regen Wind Richtung Richtung Sonnenschein Taupunkt Windben
08.06.2016 00:00 12,4 C 11,8 C 79 % 1021,5 hPa 0,0 mm 0,0 km/h (0 Bft) N-NO 22 0 min 8,9 C 0,0 km/h (0 Bft)
08.06.2016 00:05 12,4 C 11,8 C 79 % 1021,5 hPa 0,0 mm 0,0 km/h (0 Bft) N-NO 22 0 min 8,9 C 0,0 km/h (0 Bft)
08.06.2016 00:10 12,4 C 11,7 C 79 % 1021,5 hPa 0,0 mm 0,0 km/h (0 Bft) S-SW 202 0 min 8,9 C 0,0 km/h (0 Bft)
08.06.2016 00:15 12,4 C 11,8 C 79 % 1021,5 hPa 0,0 mm 0,0 km/h (0 Bft) W-SW 247 0 min 8,9 C 0,0 km/h (0 Bft)
08.06.2016 00:20 12,5 C 11,9 C 80 % 1021,5 hPa 0,0 mm 0,3 km/h (0 Bft) NO 45 0 min 9,1 C 0,0 km/h (0 Bft)
08.06.2016 00:25 12,5 C 11,9 C 80 % 1021,5 hPa 0,0 mm 0,3 km/h (0 Bft) S 180 0 min 9,1 C 0,0 km/h (0 Bft)
08.06.2016 00:30 12,5 C 11,8 C 80 % 1021,4 hPa 0,0 mm 0,0 km/h (0 Bft) N 360 0 min 9,1 C 0,0 km/h (0 Bft)
08.06.2016 00:35 12,3 C 11,8 C 80 % 1021,4 hPa 0,0 mm 0,0 km/h (0 Bft) N-NO 22 0 min 8,9 C 0,0 km/h (0 Bft)
08.06.2016 00:40 12,2 C 11,6 C 81 % 1021,4 hPa 0,0 mm 0,0 km/h (0 Bft) N-NO 22 0 min 9,0 C 0,0 km/h (0 Bft)
08.06.2016 00:45 12,0 C 11,6 C 81 % 1021,4 hPa 0,0 mm 0,0 km/h (0 Bft) N-NW 337 0 min 8,8 C 0,0 km/h (0 Bft)
08.06.2016 00:50 12,0 C 11,6 C 81 % 1021,2 hPa 0,0 mm 0,3 km/h (0 Bft) S 180 0 min 8,8 C 0,0 km/h (0 Bft)
08.06.2016 00:55 12,2 C 11,8 C 81 % 1021,2 hPa 0,0 mm 0,3 km/h (0 Bft) O-SO 112 0 min 9,0 C 0,0 km/h (0 Bft)
08.06.2016 01:00 12,3 C 11,8 C 82 % 1021,2 hPa 0,0 mm 0,0 km/h (0 Bft) S 180 0 min 9,3 C 0,0 km/h (0 Bft)
08.06.2016 01:05 12,4 C 12,0 C 82 % 1021,2 hPa 0,0 mm 0,0 km/h (0 Bft) S-SO 157 0 min 9,4 C 0,0 km/h (0 Bft)
08.06.2016 01:10 12,6 C 12,3 C 82 % 1021,1 hPa 0,0 mm 0,0 km/h (0 Bft) S-SO 157 0 min 9,6 C 0,0 km/h (0 Bft)
08.06.2016 01:15 12,6 C 12,3 C 82 % 1021,1 hPa 0,0 mm 0,0 km/h (0 Bft) S-SO 157 0 min 9,6 C 0,0 km/h (0 Bft)
08.06.2016 01:20 12,4 C 12,3 C 82 % 1021,1 hPa 0,0 mm 0,9 km/h (0 Bft) S 180 0 min 9,4 C 11,0 km/h (2 Bft)
08.06.2016 01:25 12,4 C 12,4 C 82 % 1021,1 hPa 0,0 mm 2,1 km/h (1 Bft) SW 225 0 min 9,4 C 5,4 km/h (1 Bft)
08.06.2016 01:30 12,4 C 12,4 C 82 % 1021,1 hPa 0,0 mm 1,2 km/h (1 Bft) S-SO 157 0 min 9,4 C 0,0 km/h (0 Bft)
08.06.2016 01:35 12,5 C 12,4 C 82 % 1021,1 hPa 0,0 mm 0,9 km/h (0 Bft) SW 225 0 min 9,5 C 8,9 km/h (2 Bft)
08.06.2016 01:40 12,7 C 12,7 C 82 % 1021,1 hPa 0,0 mm 3,9 km/h (1 Bft) S-SO 157 0 min 9,7 C 17,9 km/h (3 Bft)
08.06.2016 01:45 12,7 C 12,6 C 82 % 1021,1 hPa 0,0 mm 3,9 km/h (1 Bft) SW 225 0 min 9,7 C 6,0 km/h (2 Bft)
08.06.2016 01:50 12,7 C 12,6 C 82 % 1020,9 hPa 0,0 mm 1,8 km/h (1 Bft) S 180 0 min 9,7 C 0,0 km/h (0 Bft)
08.06.2016 01:55 12,6 C 12,5 C 81 % 1020,9 hPa 0,0 mm 1,8 km/h (1 Bft) S 180 0 min 9,4 C 4,5 km/h (1 Bft)
08.06.2016 02:00 12,5 C 12,5 C 81 % 1020,9 hPa 0,0 mm 1,5 km/h (1 Bft) S-SO 157 0 min 9,3 C 0,0 km/h (0 Bft)
08.06.2016 02:05 12,4 C 12,3 C 81 % 1020,9 hPa 0,0 mm 1,2 km/h (1 Bft) N 360 0 min 9,2 C 0,0 km/h (0 Bft)
08.06.2016 02:10 12,3 C 12,0 C 81 % 1020,8 hPa 0,0 mm 0,0 km/h (0 Bft) S-SO 157 0 min 9,1 C 0,0 km/h (0 Bft)
08.06.2016 02:15 12,3 C 11,9 C 81 % 1020,8 hPa 0,0 mm 0,0 km/h (0 Bft) S-SO 157 0 min 9,1 C 0,0 km/h (0 Bft)
08.06.2016 02:18 12,2 C 11,9 C 82 % 1020,8 hPa 0,0 mm 0,3 km/h (0 Bft) SW 225 0 min 9,2 C 0,0 km/h (0 Bft)
08.06.2016 02:19 12,2 C 11,9 C 82 % 1020,8 hPa 0,0 mm 0,3 km/h (0 Bft) SW 225 0 min 9,2 C 0,0 km/h (0 Bft)
08.06.2016 02:20 12,2 C 11,9 C 82 % 1020,8 hPa 0,0 mm 0,3 km/h (0 Bft) SW 225 0 min 9,2 C 0,0 km/h (0 Bft)
08.06.2016 02:25 12,3 C 12,0 C 82 % 1020,8 hPa 0,0 mm 1,2 km/h (1 Bft) S-SO 157 0 min 9,3 C 0,0 km/h (0 Bft)
08.06.2016 02:30 12,2 C 12,0 C 82 % 1020,8 hPa 0,0 mm 3,6 km/h (1 Bft) S-SO 157 0 min 9,2 C 0,0 km/h (0 Bft)
08.06.2016 02:35 12,3 C 12,2 C 82 % 1020,8 hPa 0,0 mm 4,5 km/h (1 Bft) S-SW 202 0 min 9,3 C 9,2 km/h (2 Bft)
08.06.2016 02:40 12,4 C 12,4 C 82 % 1020,8 hPa 0,0 mm 6,3 km/h (2 Bft) S 180 0 min 9,4 C 4,5 km/h (1 Bft)
08.06.2016 02:45 12,5 C 12,5 C 82 % 1020,8 hPa 0,0 mm 5,1 km/h (1 Bft) S-SO 157 0 min 9,5 C 0,0 km/h (0 Bft)
08.06.2016 02:50 12,5 C 12,3 C 82 % 1020,5 hPa 0,0 mm 0,9 km/h (0 Bft) NO 45 0 min 9,5 C 0,0 km/h (0 Bft)
08.06.2016 02:55 12,5 C 12,1 C 82 % 1020,5 hPa 0,0 mm 0,0 km/h (0 Bft) NW 315 0 min 9,5 C 0,0 km/h (0 Bft)
08.06.2016 03:00 12,3 C 12,0 C 82 % 1020,5 hPa 0,0 mm 1,2 km/h (1 Bft) S-SW 202 0 min 9,3 C 0,0 km/h (0 Bft)
08.06.2016 03:05 12,3 C 12,1 C 82 % 1020,5 hPa 0,0 mm 3,3 km/h (1 Bft) SW 225 0 min 9,3 C 16,1 km/h (3 Bft)
08.06.2016 03:10 12,5 C 12,6 C 82 % 1020,6 hPa 0,0 mm 9,2 km/h (2 Bft) S-SO 157 0 min 9,5 C 12,8 km/h (3 Bft)
08.06.2016 03:15 12,5 C 12,6 C 82 % 1020,6 hPa 0,0 mm 9,2 km/h (2 Bft) W 270 0 min 9,5 C 5,1 km/h (1 Bft)
08.06.2016 03:20 12,4 C 12,5 C 82 % 1020,6 hPa 0,0 mm 6,9 km/h (2 Bft) N-NW 337 0 min 9,4 C 8,3 km/h (2 Bft)
08.06.2016 03:25 12,4 C 12,5 C 82 % 1020,6 hPa 0,0 mm 6,0 km/h (2 Bft) S 180 0 min 9,4 C 15,5 km/h (3 Bft)
08.06.2016 03:30 12,6 C 12,7 C 82 % 1020,4 hPa 0,0 mm 8,6 km/h (2 Bft) S 180 0 min 9,6 C 13,4 km/h (3 Bft)
08.06.2016 03:35 12,6 C 12,8 C 82 % 1020,4 hPa 0,0 mm 11,0 km/h (2 Bft) SW 225 0 min 9,6 C 15,8 km/h (3 Bft)
08.06.2016 03:40 12,8 C 12,9 C 81 % 1020,4 hPa 0,0 mm 10,1 km/h (2 Bft) SW 225 0 min 9,6 C 10,7 km/h (2 Bft)
08.06.2016 03:45 13,0 C 13,0 C 80 % 1020,4 hPa 0,0 mm 8,6 km/h (2 Bft) S-SW 202 0 min 9,6 C 13,4 km/h (3 Bft)
08.06.2016 03:50 13,4 C 13,3 C 80 % 1020,4 hPa 0,0 mm 7,5 km/h (2 Bft) SO 135 0 min 10,0 C 7,2 km/h (2 Bft)
08.06.2016 03:55 13,4 C 13,4 C 80 % 1020,4 hPa 0,0 mm 7,7 km/h (2 Bft) S-SO 157 0 min 10,0 C 8,9 km/h (2 Bft)
08.06.2016 04:00 13,7 C 13,7 C 80 % 1020,4 hPa 0,0 mm 8,3 km/h (2 Bft) SW 225 0 min 10,3 C 13,1 km/h (3 Bft)
08.06.2016 04:05 13,7 C 13,8 C 80 % 1020,4 hPa 0,0 mm 9,8 km/h (2 Bft) S 180 0 min 10,3 C 13,7 km/h (3 Bft)
08.06.2016 04:10 13,8 C 13,8 C 80 % 1020,4 hPa 0,0 mm 10,1 km/h (2 Bft) S 180 0 min 10,4 C 22,4 km/h (4 Bft)
08.06.2016 04:15 13,7 C 13,7 C 79 % 1020,4 hPa 0,0 mm 11,3 km/h (2 Bft) S-SW 202 0 min 10,1 C 15,8 km/h (3 Bft)
08.06.2016 04:20 13,5 C 13,3 C 79 % 1020,4 hPa 0,0 mm 11,6 km/h (2 Bft) S-SO 157 0 min 9,9 C 5,1 km/h (1 Bft)
08.06.2016 04:25 13,3 C 13,2 C 79 % 1020,4 hPa 0,0 mm 8,9 km/h (2 Bft) S-SW 202 0 min 9,7 C 0,0 km/h (0 Bft)
08.06.2016 04:30 13,1 C 12,9 C 79 % 1020,4 hPa 0,0 mm 4,5 km/h (1 Bft) S 180 0 min 9,5 C 0,0 km/h (0 Bft)
08.06.2016 04:35 12,9 C 12,7 C 79 % 1020,4 hPa 0,0 mm 4,5 km/h (1 Bft) S-SW 202 0 min 9,3 C 6,6 km/h (2 Bft)
08.06.2016 04:40 12,6 C 12,4 C 79 % 1020,4 hPa 0,0 mm 4,2 km/h (1 Bft) S-SO 157 0 min 9,1 C 8,0 km/h (2 Bft)
08.06.2016 04:45 12,7 C 12,6 C 80 % 1020,4 hPa 0,0 mm 6,9 km/h (2 Bft) S 180 0 min 9,3 C 13,4 km/h (3 Bft)
08.06.2016 04:50 12,7 C 12,4 C 81 % 1020,4 hPa 0,0 mm 6,9 km/h (2 Bft) O-SO 112 0 min 9,5 C 0,0 km/h (0 Bft)
08.06.2016 04:55 12,4 C 12,2 C 80 % 1020,4 hPa 0,0 mm 3,3 km/h (1 Bft) NW 315 0 min 9,0 C 0,0 km/h (0 Bft)
08.06.2016 05:00 12,3 C 12,0 C 81 % 1020,4 hPa 0,0 mm 0,0 km/h (0 Bft) W-SW 247 0 min 9,1 C 0,0 km/h (0 Bft)
08.06.2016 05:05 12,2 C 12,0 C 81 % 1020,4 hPa 0,0 mm 0,3 km/h (0 Bft) W 270 0 min 9,0 C 8,6 km/h (2 Bft)
08.06.2016 05:10 12,2 C 12,2 C 81 % 1020,4 hPa 0,0 mm 1,8 km/h (1 Bft) SW 225 0 min 9,0 C 0,0 km/h (0 Bft)
08.06.2016 05:15 12,3 C 12,5 C 81 % 1020,4 hPa 0,0 mm 2,1 km/h (1 Bft) NW 315 0 min 9,1 C 3,6 km/h (1 Bft)
08.06.2016 05:18 12,7 C 13,0 C 82 % 1020,4 hPa 0,0 mm 2,1 km/h (1 Bft) W-SW 247 0 min 9,7 C 11,6 km/h (2 Bft)
08.06.2016 05:20 12,7 C 13,0 C 82 % 1020,4 hPa 0,0 mm 2,1 km/h (1 Bft) W-SW 247 0 min 9,7 C 11,6 km/h (2 Bft)
08.06.2016 05:25 12,9 C 13,0 C 82 % 1020,4 hPa 0,0 mm 2,4 km/h (1 Bft) NW 315 0 min 9,9 C 0,0 km/h (0 Bft)
08.06.2016 05:30 12,9 C 13,0 C 82 % 1020,4 hPa 0,0 mm 3,0 km/h (1 Bft) W-SW 247 0 min 9,9 C 5,7 km/h (1 Bft)
08.06.2016 05:35 13,1 C 13,0 C 80 % 1020,4 hPa 0,0 mm 3,3 km/h (1 Bft) SW 225 0 min 9,7 C 0,0 km/h (0 Bft)
08.06.2016 05:40 13,0 C 12,8 C 80 % 1020,4 hPa 0,0 mm 1,8 km/h (1 Bft) N-NO 22 0 min 9,6 C 5,1 km/h (1 Bft)
08.06.2016 05:45 12,9 C 12,8 C 81 % 1020,4 hPa 0,0 mm 0,9 km/h (0 Bft) O-SO 112 0 min 9,7 C 0,0 km/h (0 Bft)
08.06.2016 05:50 13,0 C 13,1 C 80 % 1020,6 hPa 0,0 mm 3,0 km/h (1 Bft) W 270 0 min 9,6 C 6,6 km/h (2 Bft)
08.06.2016 05:55 13,1 C 13,2 C 80 % 1020,6 hPa 0,0 mm 2,1 km/h (1 Bft) W-NW 292 0 min 9,7 C 0,0 km/h (0 Bft)
08.06.2016 06:00 13,2 C 13,3 C 79 % 1020,6 hPa 0,0 mm 0,6 km/h (0 Bft) N-NO 22 0 min 9,6 C 0,0 km/h (0 Bft)
08.06.2016 06:05 13,2 C 13,3 C 79 % 1020,6 hPa 0,0 mm 0,0 km/h (0 Bft) N-NW 337 0 min 9,6 C 0,0 km/h (0 Bft)
08.06.2016 06:10 13,4 C 13,5 C 79 % 1020,7 hPa 0,0 mm 1,2 km/h (1 Bft) N-NO 22 0 min 9,8 C 0,0 km/h (0 Bft)
08.06.2016 06:15 13,4 C 13,5 C 79 % 1020,7 hPa 0,0 mm 1,2 km/h (1 Bft) W-SW 247 0 min 9,8 C 0,0 km/h (0 Bft)
08.06.2016 06:20 13,4 C 13,4 C 79 % 1020,7 hPa 0,0 mm 0,0 km/h (0 Bft) NW 315 0 min 9,8 C 0,0 km/h (0 Bft)
08.06.2016 06:25 13,4 C 13,3 C 79 % 1020,7 hPa 0,0 mm 0,0 km/h (0 Bft) S-SO 157 0 min 9,8 C 0,0 km/h (0 Bft)
08.06.2016 06:30 13,3 C 13,0 C 79 % 1020,6 hPa 0,0 mm 0,6 km/h (0 Bft) S 180 0 min 9,7 C 11,6 km/h (2 Bft)
08.06.2016 06:35 13,3 C 13,0 C 79 % 1020,6 hPa 0,0 mm 1,2 km/h (1 Bft) W-SW 247 0 min 9,7 C 0,0 km/h (0 Bft)
08.06.2016 06:40 13,3 C 12,9 C 79 % 1020,6 hPa 0,0 mm 1,2 km/h (1 Bft) O-NO 67 0 min 9,7 C 0,0 km/h (0 Bft)
08.06.2016 06:45 13,3 C 12,8 C 79 % 1020,6 hPa 0,0 mm 0,0 km/h (0 Bft) O-NO 67 0 min 9,7 C 0,0 km/h (0 Bft)
08.06.2016 06:50 13,3 C 12,7 C 79 % 1020,9 hPa 0,0 mm 0,0 km/h (0 Bft) NO 45 0 min 9,7 C 0,0 km/h (0 Bft)
08.06.2016 06:55 13,3 C 12,7 C 79 % 1020,9 hPa 0,7 mm 0,0 km/h (0 Bft) SO 135 0 min 9,7 C 0,0 km/h (0 Bft)
08.06.2016 07:00 12,8 C 12,7 C 83 % 1020,9 hPa 0,0 mm 0,0 km/h (0 Bft) SO 135 0 min 10,0 C 0,0 km/h (0 Bft)
08.06.2016 07:05 12,8 C 12,7 C 83 % 1020,9 hPa 0,0 mm 0,0 km/h (0 Bft) S 180 0 min 10,0 C 0,0 km/h (0 Bft)
08.06.2016 07:10 12,9 C 12,8 C 83 % 1021,1 hPa 0,0 mm 0,0 km/h (0 Bft) SO 135 0 min 10,1 C 0,0 km/h (0 Bft)
08.06.2016 07:15 12,9 C 12,9 C 83 % 1021,1 hPa 0,0 mm 0,0 km/h (0 Bft) SO 135 0 min 10,1 C 0,0 km/h (0 Bft)
08.06.2016 07:20 12,9 C 13,0 C 84 % 1021,1 hPa 0,0 mm 0,0 km/h (0 Bft) SO 135 0 min 10,3 C 0,0 km/h (0 Bft)
08.06.2016 07:25 13,0 C 13,1 C 83 % 1021,1 hPa 0,0 mm 0,0 km/h (0 Bft) S 180 0 min 10,2 C 0,0 km/h (0 Bft)
08.06.2016 07:30 13,1 C 13,2 C 83 % 1021,1 hPa 0,0 mm 0,0 km/h (0 Bft) S-SO 157 0 min 10,3 C 0,0 km/h (0 Bft)
08.06.2016 07:35 13,1 C 13,2 C 83 % 1021,1 hPa 0,0 mm 0,0 km/h (0 Bft) S 180 0 min 10,3 C 0,0 km/h (0 Bft)
08.06.2016 07:40 13,2 C 13,3 C 84 % 1021,1 hPa 0,0 mm 0,0 km/h (0 Bft) S-SO 157 0 min 10,6 C 0,0 km/h (0 Bft)
08.06.2016 07:45 13,2 C 13,4 C 84 % 1021,1 hPa 0,0 mm 0,0 km/h (0 Bft) SO 135 0 min 10,6 C 0,0 km/h (0 Bft)
08.06.2016 07:50 13,3 C 13,5 C 84 % 1021,1 hPa 0,0 mm 0,0 km/h (0 Bft) S 180 0 min 10,7 C 0,0 km/h (0 Bft)
08.06.2016 07:55 13,4 C 13,7 C 84 % 1021,1 hPa 0,0 mm 0,0 km/h (0 Bft) W-NW 292 0 min 10,8 C 0,0 km/h (0 Bft)
08.06.2016 08:00 13,7 C 13,9 C 84 % 1021,1 hPa 0,0 mm 0,0 km/h (0 Bft) N-NW 337 0 min 11,0 C 0,0 km/h (0 Bft)
08.06.2016 08:05 13,8 C 14,0 C 84 % 1021,1 hPa 0,0 mm 0,0 km/h (0 Bft) N-NO 22 0 min 11,1 C 0,0 km/h (0 Bft)
08.06.2016 08:10 13,9 C 14,1 C 84 % 1021,2 hPa 0,0 mm 0,0 km/h (0 Bft) W 270 0 min 11,2 C 0,0 km/h (0 Bft)
08.06.2016 08:15 13,9 C 14,3 C 84 % 1021,2 hPa 0,0 mm 0,0 km/h (0 Bft) W-SW 247 0 min 11,2 C 0,0 km/h (0 Bft)
08.06.2016 08:18 14,0 C 14,3 C 84 % 1021,2 hPa 0,0 mm 0,0 km/h (0 Bft) N-NO 22 0 min 11,3 C 0,0 km/h (0 Bft)
08.06.2016 08:21 14,0 C 14,3 C 84 % 1021,2 hPa 0,0 mm 0,0 km/h (0 Bft) N-NO 22 0 min 11,3 C 0,0 km/h (0 Bft)
08.06.2016 08:25 14,2 C 14,4 C 84 % 1021,2 hPa 0,0 mm 0,0 km/h (0 Bft) N-NW 337 0 min 11,5 C 0,0 km/h (0 Bft)
08.06.2016 08:30 14,4 C 14,6 C 84 % 1021,1 hPa 0,0 mm 0,0 km/h (0 Bft) N-NO 22 0 min 11,7 C 0,0 km/h (0 Bft)
08.06.2016 08:35 14,4 C 14,6 C 84 % 1021,1 hPa 0,0 mm 0,0 km/h (0 Bft) O-NO 67 0 min 11,7 C 0,0 km/h (0 Bft)
08.06.2016 08:40 14,4 C 14,6 C 84 % 1021,1 hPa 0,0 mm 0,0 km/h (0 Bft) N-NO 22 0 min 11,7 C 0,0 km/h (0 Bft)
08.06.2016 08:45 14,4 C 14,6 C 84 % 1021,1 hPa 0,0 mm 0,0 km/h (0 Bft) NO 45 0 min 11,7 C 0,0 km/h (0 Bft)
08.06.2016 08:50 14,4 C 14,8 C 84 % 1020,9 hPa 0,0 mm 0,0 km/h (0 Bft) N-NO 22 0 min 11,7 C 0,0 km/h (0 Bft)
08.06.2016 08:55 14,5 C 14,7 C 83 % 1020,9 hPa 0,0 mm 0,0 km/h (0 Bft) NO 45 0 min 11,6 C 0,0 km/h (0 Bft)
08.06.2016 09:00 14,5 C 14,5 C 83 % 1020,9 hPa 0,0 mm 0,0 km/h (0 Bft) N-NO 22 0 min 11,6 C 0,0 km/h (0 Bft)
08.06.2016 09:05 14,5 C 14,6 C 83 % 1020,9 hPa 0,0 mm 0,0 km/h (0 Bft) O-NO 67 0 min 11,6 C 0,0 km/h (0 Bft)
08.06.2016 09:10 14,5 C 14,6 C 83 % 1020,9 hPa 0,0 mm 0,0 km/h (0 Bft) O-NO 67 0 min 11,6 C 0,0 km/h (0 Bft)
08.06.2016 09:15 14,5 C 14,6 C 83 % 1020,9 hPa 0,0 mm 0,0 km/h (0 Bft) N-NW 337 0 min 11,6 C 0,0 km/h (0 Bft)
08.06.2016 09:20 14,7 C 14,8 C 83 % 1020,9 hPa 0,0 mm 0,0 km/h (0 Bft) NW 315 0 min 11,8 C 0,0 km/h (0 Bft)
08.06.2016 09:25 14,9 C 15,0 C 83 % 1020,9 hPa 0,0 mm 0,0 km/h (0 Bft) N 360 0 min 12,0 C 0,0 km/h (0 Bft)
08.06.2016 09:30 15,1 C 15,3 C 83 % 1020,7 hPa 0,0 mm 0,0 km/h (0 Bft) W-SW 247 0 min 12,2 C 0,0 km/h (0 Bft)
08.06.2016 09:35 15,2 C 15,2 C 83 % 1020,7 hPa 0,0 mm 0,0 km/h (0 Bft) N-NW 337 0 min 12,3 C 0,0 km/h (0 Bft)
08.06.2016 09:40 15,1 C 15,2 C 82 % 1020,7 hPa 0,0 mm 0,0 km/h (0 Bft) N-NO 22 0 min 12,0 C 0,0 km/h (0 Bft)
08.06.2016 09:45 15,1 C 15,3 C 82 % 1020,7 hPa 0,0 mm 0,0 km/h (0 Bft) N-NW 337 0 min 12,0 C 0,0 km/h (0 Bft)
08.06.2016 09:50 14,9 C 15,3 C 82 % 1020,6 hPa 0,0 mm 0,0 km/h (0 Bft) NO 45 0 min 11,9 C 0,0 km/h (0 Bft)
08.06.2016 09:55 14,9 C 15,3 C 82 % 1020,6 hPa 0,0 mm 0,0 km/h (0 Bft) NW 315 0 min 11,9 C 0,0 km/h (0 Bft)
08.06.2016 10:00 15,0 C 15,5 C 82 % 1020,6 hPa 0,0 mm 0,0 km/h (0 Bft) W-NW 292 0 min 12,0 C 0,0 km/h (0 Bft)
08.06.2016 10:05 15,1 C 15,6 C 82 % 1020,6 hPa 0,0 mm 0,0 km/h (0 Bft) NW 315 0 min 12,0 C 0,0 km/h (0 Bft)
08.06.2016 10:10 15,1 C 15,7 C 82 % 1020,4 hPa 0,0 mm 0,0 km/h (0 Bft) NW 315 0 min 12,0 C 0,0 km/h (0 Bft)
08.06.2016 10:15 15,1 C 15,8 C 82 % 1020,4 hPa 0,0 mm 0,0 km/h (0 Bft) W 270 0 min 12,0 C 0,0 km/h (0 Bft)
08.06.2016 10:20 15,2 C 16,0 C 82 % 1020,4 hPa 0,0 mm 0,0 km/h (0 Bft) NW 315 0 min 12,1 C 0,0 km/h (0 Bft)
08.06.2016 10:25 15,2 C 16,1 C 82 % 1020,4 hPa 0,0 mm 0,0 km/h (0 Bft) O-NO 67 0 min 12,1 C 0,0 km/h (0 Bft)
08.06.2016 10:30 15,3 C 16,1 C 81 % 1020,6 hPa 0,0 mm 0,0 km/h (0 Bft) N-NO 22 0 min 12,1 C 0,0 km/h (0 Bft)
08.06.2016 10:35 15,2 C 16,1 C 82 % 1020,6 hPa 0,0 mm 0,0 km/h (0 Bft) O-NO 67 0 min 12,1 C 0,0 km/h (0 Bft)
08.06.2016 10:40 15,2 C 16,2 C 82 % 1020,6 hPa 0,0 mm 0,0 km/h (0 Bft) O-NO 67 0 min 12,1 C 0,0 km/h (0 Bft)
08.06.2016 10:45 15,3 C 16,3 C 82 % 1020,6 hPa 0,0 mm 0,0 km/h (0 Bft) O-NO 67 0 min 12,2 C 0,0 km/h (0 Bft)
08.06.2016 10:50 15,4 C 16,6 C 81 % 1020,5 hPa 0,0 mm 0,0 km/h (0 Bft) N-NO 22 0 min 12,2 C 0,0 km/h (0 Bft)
08.06.2016 10:55 15,5 C 16,8 C 81 % 1020,5 hPa 0,0 mm 0,0 km/h (0 Bft) NO 45 0 min 12,3 C 0,0 km/h (0 Bft)
08.06.2016 11:00 15,5 C 16,9 C 81 % 1020,5 hPa 0,0 mm 0,0 km/h (0 Bft) NO 45 0 min 12,3 C 0,0 km/h (0 Bft)
08.06.2016 11:05 15,5 C 17,1 C 81 % 1020,5 hPa 0,0 mm 0,0 km/h (0 Bft) S-SO 157 0 min 12,3 C 0,0 km/h (0 Bft)
08.06.2016 11:10 15,8 C 17,4 C 81 % 1020,3 hPa 0,0 mm 0,0 km/h (0 Bft) W 270 0 min 12,5 C 0,0 km/h (0 Bft)
08.06.2016 11:15 15,9 C 17,6 C 81 % 1020,3 hPa 0,0 mm 0,0 km/h (0 Bft) N-NW 337 0 min 12,6 C 0,0 km/h (0 Bft)
08.06.2016 11:20 15,9 C 17,4 C 80 % 1020,3 hPa 0,0 mm 0,0 km/h (0 Bft) NO 45 0 min 12,5 C 0,0 km/h (0 Bft)
08.06.2016 11:22 15,9 C 17,4 C 80 % 1020,3 hPa 0,0 mm 0,0 km/h (0 Bft) NO 45 0 min 12,5 C 0,0 km/h (0 Bft)
08.06.2016 11:25 15,8 C 17,2 C 80 % 1020,3 hPa 0,0 mm 0,0 km/h (0 Bft) N-NO 22 0 min 12,4 C 0,0 km/h (0 Bft)
08.06.2016 11:30 15,8 C 17,2 C 79 % 1020,4 hPa 0,0 mm 0,0 km/h (0 Bft) N-NO 22 0 min 12,2 C 0,0 km/h (0 Bft)
08.06.2016 11:35 15,8 C 17,3 C 79 % 1020,4 hPa 0,0 mm 0,6 km/h (0 Bft) W 270 0 min 12,2 C 6,9 km/h (2 Bft)
08.06.2016 11:40 15,8 C 16,6 C 79 % 1020,4 hPa 0,0 mm 2,7 km/h (1 Bft) NW 315 0 min 12,2 C 6,6 km/h (2 Bft)
08.06.2016 11:45 15,7 C 16,0 C 80 % 1020,4 hPa 0,7 mm 3,0 km/h (1 Bft) W-SW 247 0 min 12,3 C 0,0 km/h (0 Bft)
08.06.2016 11:50 15,7 C 16,0 C 79 % 1020,5 hPa 0,0 mm 1,2 km/h (1 Bft) W-SW 247 0 min 12,1 C 0,0 km/h (0 Bft)
08.06.2016 11:55 15,8 C 15,9 C 79 % 1020,5 hPa 0,0 mm 0,6 km/h (0 Bft) N-NW 337 0 min 12,2 C 7,7 km/h (2 Bft)
08.06.2016 12:00 15,8 C 15,8 C 79 % 1020,5 hPa 0,0 mm 3,6 km/h (1 Bft) W-NW 292 0 min 12,2 C 5,4 km/h (1 Bft)
08.06.2016 12:05 15,8 C 15,7 C 79 % 1020,5 hPa 0,0 mm 4,5 km/h (1 Bft) W 270 0 min 12,2 C 8,9 km/h (2 Bft)
08.06.2016 12:10 15,4 C 15,4 C 79 % 1020,5 hPa 0,0 mm 2,7 km/h (1 Bft) W-NW 292 0 min 11,8 C 0,0 km/h (0 Bft)
08.06.2016 12:15 15,4 C 15,3 C 79 % 1020,5 hPa 0,0 mm 0,9 km/h (0 Bft) NW 315 0 min 11,8 C 0,0 km/h (0 Bft)
08.06.2016 12:20 15,5 C 15,3 C 79 % 1020,5 hPa 0,0 mm 0,0 km/h (0 Bft) W-NW 292 0 min 11,9 C 0,0 km/h (0 Bft)
08.06.2016 12:25 15,4 C 15,3 C 79 % 1020,5 hPa 0,0 mm 0,0 km/h (0 Bft) NW 315 0 min 11,8 C 0,0 km/h (0 Bft)
08.06.2016 12:30 15,4 C 15,3 C 79 % 1020,6 hPa 0,7 mm 1,8 km/h (1 Bft) S 180 0 min 11,8 C 6,0 km/h (2 Bft)
08.06.2016 12:35 15,4 C 15,3 C 79 % 1020,6 hPa 0,0 mm 3,6 km/h (1 Bft) W 270 0 min 11,8 C 4,2 km/h (1 Bft)
08.06.2016 12:40 15,6 C 15,6 C 80 % 1020,6 hPa 0,0 mm 5,7 km/h (1 Bft) W-NW 292 0 min 12,2 C 6,9 km/h (2 Bft)
08.06.2016 12:45 15,6 C 15,9 C 79 % 1020,6 hPa 0,0 mm 6,0 km/h (2 Bft) NW 315 0 min 12,0 C 5,4 km/h (1 Bft)
08.06.2016 12:50 15,8 C 16,2 C 80 % 1020,4 hPa 0,0 mm 5,1 km/h (1 Bft) N-NO 22 0 min 12,4 C 3,3 km/h (1 Bft)
08.06.2016 12:55 16,2 C 16,6 C 79 % 1020,4 hPa 0,0 mm 4,5 km/h (1 Bft) W-NW 292 0 min 12,6 C 6,3 km/h (2 Bft)
08.06.2016 13:00 16,4 C 17,0 C 79 % 1020,4 hPa 0,0 mm 4,5 km/h (1 Bft) N 360 0 min 12,7 C 9,2 km/h (2 Bft)
08.06.2016 13:05 16,5 C 17,5 C 79 % 1020,4 hPa 0,0 mm 5,4 km/h (1 Bft) W 270 0 min 12,8 C 7,7 km/h (2 Bft)
08.06.2016 13:10 16,6 C 18,0 C 78 % 1020,4 hPa 0,0 mm 6,3 km/h (2 Bft) N-NW 337 0 min 12,7 C 6,6 km/h (2 Bft)
08.06.2016 13:15 16,8 C 18,4 C 78 % 1020,4 hPa 0,0 mm 5,1 km/h (1 Bft) N-NO 22 0 min 12,9 C 0,0 km/h (0 Bft)
08.06.2016 13:20 17,2 C 19,3 C 78 % 1020,4 hPa 0,0 mm 1,8 km/h (1 Bft) W-NW 292 0 min 13,3 C 0,0 km/h (0 Bft)
08.06.2016 13:25 17,3 C 19,8 C 77 % 1020,4 hPa 0,0 mm 1,2 km/h (1 Bft) W 270 0 min 13,2 C 9,2 km/h (2 Bft)
08.06.2016 13:30 17,1 C 19,4 C 77 % 1020,3 hPa 0,0 mm 5,1 km/h (1 Bft) W 270 0 min 13,0 C 12,8 km/h (3 Bft)
08.06.2016 13:35 16,9 C 19,1 C 77 % 1020,3 hPa 0,0 mm 5,4 km/h (1 Bft) W-NW 292 0 min 12,8 C 7,5 km/h (2 Bft)
08.06.2016 13:40 17,0 C 18,9 C 76 % 1020,3 hPa 0,0 mm 3,9 km/h (1 Bft) W-SW 247 0 min 12,7 C 5,7 km/h (1 Bft)
08.06.2016 13:45 17,0 C 18,6 C 76 % 1020,3 hPa 0,0 mm 3,0 km/h (1 Bft) W-SW 247 0 min 12,7 C 9,8 km/h (2 Bft)
08.06.2016 13:50 17,0 C 19,0 C 76 % 1020,1 hPa 0,0 mm 4,2 km/h (1 Bft) NW 315 0 min 12,7 C 7,7 km/h (2 Bft)
08.06.2016 13:55 17,2 C 19,5 C 76 % 1020,1 hPa 0,0 mm 4,2 km/h (1 Bft) NW 315 0 min 12,9 C 8,9 km/h (2 Bft)
08.06.2016 14:00 17,2 C 20,0 C 76 % 1020,1 hPa 0,0 mm 5,7 km/h (1 Bft) W 270 0 min 12,9 C 12,2 km/h (2 Bft)
08.06.2016 14:05 17,4 C 20,7 C 76 % 1020,1 hPa 0,0 mm 6,3 km/h (2 Bft) W 270 5 min 13,1 C 12,2 km/h (2 Bft)
08.06.2016 14:10 17,5 C 21,1 C 75 % 1020,2 hPa 0,0 mm 6,9 km/h (2 Bft) NO 45 5 min 13,0 C 3,3 km/h (1 Bft)
08.06.2016 14:15 17,8 C 21,9 C 75 % 1020,2 hPa 0,0 mm 5,1 km/h (1 Bft) N-NO 22 5 min 13,3 C 3,9 km/h (1 Bft)
08.06.2016 14:20 18,1 C 22,9 C 75 % 1020,2 hPa 0,0 mm 3,6 km/h (1 Bft) W-NW 292 5 min 13,6 C 9,2 km/h (2 Bft)
08.06.2016 14:23 18,1 C 22,9 C 75 % 1020,2 hPa 0,0 mm 3,6 km/h (1 Bft) W-NW 292 3 min 13,6 C 9,2 km/h (2 Bft)
08.06.2016 14:25 18,2 C 23,2 C 74 % 1020,2 hPa 0,0 mm 5,1 km/h (1 Bft) N 360 2 min 13,5 C 12,5 km/h (3 Bft)
08.06.2016 14:30 18,3 C 23,7 C 73 % 1019,9 hPa 0,0 mm 4,5 km/h (1 Bft) NW 315 5 min 13,4 C 0,0 km/h (0 Bft)
08.06.2016 14:35 18,8 C 24,6 C 73 % 1019,9 hPa 0,0 mm 4,8 km/h (1 Bft) NW 315 5 min 13,9 C 10,1 km/h (2 Bft)
08.06.2016 14:40 18,9 C 25,1 C 70 % 1019,9 hPa 0,0 mm 7,7 km/h (2 Bft) NW 315 5 min 13,3 C 8,6 km/h (2 Bft)
08.06.2016 14:45 18,6 C 24,2 C 70 % 1019,9 hPa 0,0 mm 9,2 km/h (2 Bft) W 270 5 min 13,0 C 12,5 km/h (3 Bft)
08.06.2016 14:50 18,4 C 23,0 C 70 % 1019,8 hPa 0,0 mm 6,3 km/h (2 Bft) O-SO 112 5 min 12,8 C 0,0 km/h (0 Bft)
08.06.2016 14:55 18,3 C 23,2 C 70 % 1019,8 hPa 0,0 mm 3,0 km/h (1 Bft) W-NW 292 5 min 12,7 C 0,0 km/h (0 Bft)
08.06.2016 15:00 18,1 C 22,1 C 70 % 1019,8 hPa 0,0 mm 2,7 km/h (1 Bft) W-NW 292 5 min 12,5 C 0,0 km/h (0 Bft)
08.06.2016 15:05 17,9 C 20,9 C 70 % 1019,8 hPa 0,0 mm 5,4 km/h (1 Bft) S 180 5 min 12,3 C 10,7 km/h (2 Bft)
08.06.2016 15:10 17,8 C 20,0 C 70 % 1019,8 hPa 0,0 mm 6,9 km/h (2 Bft) W 270 0 min 12,3 C 16,1 km/h (3 Bft)
08.06.2016 15:15 17,8 C 20,2 C 71 % 1019,8 hPa 0,0 mm 8,0 km/h (2 Bft) W 270 0 min 12,5 C 14,6 km/h (3 Bft)
08.06.2016 15:20 18,3 C 21,4 C 71 % 1019,8 hPa 0,0 mm 7,2 km/h (2 Bft) NW 315 0 min 12,9 C 8,3 km/h (2 Bft)
08.06.2016 15:25 18,5 C 22,3 C 70 % 1019,8 hPa 0,0 mm 8,0 km/h (2 Bft) NW 315 0 min 12,9 C 16,1 km/h (3 Bft)
08.06.2016 15:30 18,7 C 23,0 C 70 % 1019,4 hPa 0,0 mm 9,8 km/h (2 Bft) W 270 5 min 13,1 C 12,5 km/h (3 Bft)
08.06.2016 15:35 18,6 C 22,4 C 69 % 1019,4 hPa 0,0 mm 8,9 km/h (2 Bft) NW 315 5 min 12,8 C 10,7 km/h (2 Bft)
08.06.2016 15:40 18,5 C 22,3 C 68 % 1019,4 hPa 0,0 mm 7,5 km/h (2 Bft) W 270 5 min 12,5 C 14,6 km/h (3 Bft)
08.06.2016 15:45 18,5 C 22,2 C 68 % 1019,4 hPa 0,0 mm 8,9 km/h (2 Bft) W 270 5 min 12,5 C 14,6 km/h (3 Bft)
08.06.2016 15:50 18,3 C 21,7 C 69 % 1019,5 hPa 0,0 mm 9,5 km/h (2 Bft) N 360 5 min 12,5 C 9,2 km/h (2 Bft)
08.06.2016 15:55 18,2 C 21,2 C 69 % 1019,5 hPa 0,0 mm 8,9 km/h (2 Bft) W-NW 292 5 min 12,4 C 13,1 km/h (3 Bft)
08.06.2016 16:00 17,9 C 20,1 C 69 % 1019,5 hPa 0,0 mm 9,5 km/h (2 Bft) W 270 0 min 12,1 C 10,7 km/h (2 Bft)
08.06.2016 16:05 17,9 C 20,0 C 70 % 1019,5 hPa 0,0 mm 6,6 km/h (2 Bft) NW 315 0 min 12,3 C 7,2 km/h (2 Bft)
08.06.2016 16:10 18,0 C 20,3 C 68 % 1019,1 hPa 0,0 mm 3,0 km/h (1 Bft) S-SO 157 0 min 12,0 C 0,0 km/h (0 Bft)
08.06.2016 16:15 18,0 C 20,4 C 68 % 1019,1 hPa 0,0 mm 3,0 km/h (1 Bft) NW 315 0 min 12,0 C 6,3 km/h (2 Bft)
08.06.2016 16:20 17,9 C 20,2 C 69 % 1019,1 hPa 0,0 mm 2,4 km/h (1 Bft) N-NW 337 0 min 12,1 C 0,0 km/h (0 Bft)
08.06.2016 16:25 17,8 C 20,0 C 69 % 1019,1 hPa 0,0 mm 3,6 km/h (1 Bft) W-NW 292 0 min 12,0 C 4,2 km/h (1 Bft)
08.06.2016 16:30 17,6 C 19,6 C 69 % 1019,0 hPa 0,0 mm 5,1 km/h (1 Bft) N-NW 337 0 min 11,8 C 7,2 km/h (2 Bft)
08.06.2016 16:35 17,5 C 19,3 C 70 % 1019,0 hPa 0,0 mm 5,4 km/h (1 Bft) NW 315 0 min 12,0 C 4,5 km/h (1 Bft)
08.06.2016 16:40 17,4 C 19,0 C 70 % 1019,0 hPa 0,0 mm 6,0 km/h (2 Bft) NW 315 0 min 11,9 C 4,5 km/h (1 Bft)
08.06.2016 16:45 17,3 C 18,9 C 70 % 1019,0 hPa 0,0 mm 5,4 km/h (1 Bft) NW 315 0 min 11,8 C 11,3 km/h (2 Bft)
08.06.2016 16:50 17,2 C 18,1 C 70 % 1018,9 hPa 0,0 mm 5,1 km/h (1 Bft) W 270 0 min 11,7 C 0,0 km/h (0 Bft)
08.06.2016 16:55 17,2 C 17,1 C 70 % 1018,9 hPa 0,0 mm 5,1 km/h (1 Bft) O-SO 112 0 min 11,7 C 6,6 km/h (2 Bft)
08.06.2016 17:00 17,2 C 16,6 C 70 % 1018,9 hPa 0,0 mm 4,2 km/h (1 Bft) W 270 0 min 11,7 C 3,6 km/h (1 Bft)
08.06.2016 17:05 16,7 C 16,6 C 73 % 1018,9 hPa 0,0 mm 4,5 km/h (1 Bft) NW 315 0 min 11,8 C 0,0 km/h (0 Bft)
08.06.2016 17:10 16,8 C 16,8 C 73 % 1018,6 hPa 0,0 mm 1,5 km/h (1 Bft) N-NO 22 0 min 11,9 C 4,5 km/h (1 Bft)
08.06.2016 17:15 16,8 C 17,0 C 72 % 1018,6 hPa 0,0 mm 0,9 km/h (0 Bft) S-SO 157 0 min 11,7 C 0,0 km/h (0 Bft)
08.06.2016 17:20 17,0 C 17,7 C 72 % 1018,6 hPa 0,0 mm 0,6 km/h (0 Bft) NW 315 0 min 11,9 C 0,0 km/h (0 Bft)
08.06.2016 17:23 17,1 C 17,9 C 71 % 1018,6 hPa 0,0 mm 0,0 km/h (0 Bft) NO 45 0 min 11,8 C 0,0 km/h (0 Bft)
08.06.2016 17:24 17,1 C 17,9 C 71 % 1018,6 hPa 0,0 mm 0,0 km/h (0 Bft) NO 45 0 min 11,8 C 0,0 km/h (0 Bft)
08.06.2016 17:25 17,1 C 17,9 C 71 % 1018,6 hPa 0,0 mm 0,0 km/h (0 Bft) NO 45 0 min 11,8 C 0,0 km/h (0 Bft)
08.06.2016 17:30 16,8 C 17,6 C 71 % 1018,3 hPa 0,0 mm 0,0 km/h (0 Bft) N-NO 22 0 min 11,5 C 0,0 km/h (0 Bft)
08.06.2016 17:35 16,7 C 17,4 C 72 % 1018,3 hPa 0,0 mm 0,0 km/h (0 Bft) SO 135 0 min 11,6 C 0,0 km/h (0 Bft)
08.06.2016 17:40 16,2 C 16,9 C 73 % 1018,3 hPa 0,0 mm 0,0 km/h (0 Bft) S-SO 157 0 min 11,4 C 0,0 km/h (0 Bft)
08.06.2016 17:45 16,1 C 16,4 C 73 % 1018,3 hPa 0,7 mm 0,0 km/h (0 Bft) S 180 0 min 11,3 C 0,0 km/h (0 Bft)
08.06.2016 17:50 15,7 C 16,0 C 76 % 1018,2 hPa 0,7 mm 0,0 km/h (0 Bft) S 180 0 min 11,5 C 0,0 km/h (0 Bft)
08.06.2016 17:55 15,9 C 16,4 C 77 % 1018,2 hPa 0,0 mm 0,0 km/h (0 Bft) N-NO 22 0 min 11,9 C 0,0 km/h (0 Bft)
08.06.2016 18:00 16,4 C 17,4 C 78 % 1018,2 hPa 0,0 mm 0,0 km/h (0 Bft) W-NW 292 0 min 12,6 C 0,0 km/h (0 Bft)
08.06.2016 18:05 16,6 C 17,5 C 78 % 1018,2 hPa 0,0 mm 0,0 km/h (0 Bft) N-NW 337 0 min 12,7 C 0,0 km/h (0 Bft)
08.06.2016 18:10 17,0 C 17,6 C 78 % 1017,9 hPa 0,0 mm 0,0 km/h (0 Bft) W 270 0 min 13,1 C 0,0 km/h (0 Bft)
08.06.2016 18:15 17,2 C 17,9 C 77 % 1017,9 hPa 0,0 mm 0,9 km/h (0 Bft) W 270 0 min 13,1 C 12,2 km/h (2 Bft)
08.06.2016 18:20 17,4 C 17,9 C 77 % 1017,9 hPa 0,0 mm 2,7 km/h (1 Bft) NW 315 0 min 13,3 C 10,1 km/h (2 Bft)
08.06.2016 18:25 17,4 C 17,8 C 76 % 1017,9 hPa 0,0 mm 6,9 km/h (2 Bft) NW 315 0 min 13,1 C 19,4 km/h (3 Bft)
08.06.2016 18:30 17,6 C 18,0 C 75 % 1017,9 hPa 0,0 mm 10,7 km/h (2 Bft) W 270 0 min 13,1 C 13,7 km/h (3 Bft)
08.06.2016 18:35 17,6 C 18,0 C 74 % 1017,9 hPa 0,0 mm 11,6 km/h (2 Bft) W 270 0 min 12,9 C 21,5 km/h (4 Bft)
08.06.2016 18:40 17,5 C 18,4 C 73 % 1017,9 hPa 0,0 mm 11,3 km/h (2 Bft) W 270 0 min 12,6 C 22,7 km/h (4 Bft)
08.06.2016 18:45 17,2 C 18,2 C 71 % 1017,9 hPa 0,0 mm 11,6 km/h (2 Bft) W 270 0 min 11,9 C 14,9 km/h (3 Bft)
08.06.2016 18:50 17,0 C 17,6 C 71 % 1017,9 hPa 0,0 mm 11,9 km/h (2 Bft) W-SW 247 0 min 11,7 C 6,3 km/h (2 Bft)
08.06.2016 18:55 16,8 C 17,3 C 72 % 1017,9 hPa 0,0 mm 9,8 km/h (2 Bft) NW 315 0 min 11,7 C 10,7 km/h (2 Bft)
08.06.2016 19:00 16,6 C 17,0 C 72 % 1017,9 hPa 0,0 mm 8,9 km/h (2 Bft) W-NW 292 0 min 11,5 C 17,9 km/h (3 Bft)
08.06.2016 19:05 16,5 C 16,8 C 72 % 1017,9 hPa 0,0 mm 8,3 km/h (2 Bft) W 270 0 min 11,4 C 8,3 km/h (2 Bft)
08.06.2016 19:10 16,4 C 16,4 C 73 % 1018,0 hPa 0,0 mm 6,6 km/h (2 Bft) W 270 0 min 11,5 C 13,1 km/h (3 Bft)
08.06.2016 19:15 16,2 C 16,3 C 73 % 1018,0 hPa 0,0 mm 4,8 km/h (1 Bft) W-NW 292 0 min 11,4 C 4,5 km/h (1 Bft)
08.06.2016 19:20 16,1 C 16,2 C 73 % 1018,0 hPa 0,0 mm 5,1 km/h (1 Bft) SW 225 0 min 11,3 C 6,6 km/h (2 Bft)
08.06.2016 19:25 16,0 C 16,1 C 72 % 1018,0 hPa 0,0 mm 5,1 km/h (1 Bft) W-NW 292 0 min 11,0 C 9,2 km/h (2 Bft)
08.06.2016 19:30 15,8 C 15,9 C 73 % 1018,1 hPa 0,0 mm 4,8 km/h (1 Bft) SW 225 0 min 11,0 C 3,0 km/h (1 Bft)
08.06.2016 19:35 15,7 C 15,8 C 73 % 1018,1 hPa 0,0 mm 4,8 km/h (1 Bft) SO 135 0 min 10,9 C 0,0 km/h (0 Bft)
08.06.2016 19:40 15,7 C 15,8 C 72 % 1018,1 hPa 0,0 mm 3,6 km/h (1 Bft) W-SW 247 0 min 10,7 C 10,1 km/h (2 Bft)
08.06.2016 19:45 15,7 C 15,9 C 72 % 1018,1 hPa 0,0 mm 3,9 km/h (1 Bft) SW 225 0 min 10,7 C 7,5 km/h (2 Bft)
08.06.2016 19:50 15,7 C 16,1 C 72 % 1018,1 hPa 0,0 mm 5,4 km/h (1 Bft) NW 315 0 min 10,7 C 0,0 km/h (0 Bft)
08.06.2016 19:55 15,7 C 16,2 C 72 % 1018,1 hPa 0,0 mm 3,3 km/h (1 Bft) W 270 0 min 10,7 C 0,0 km/h (0 Bft)
08.06.2016 20:00 15,6 C 16,0 C 73 % 1018,1 hPa 0,0 mm 1,2 km/h (1 Bft) S 180 0 min 10,8 C 0,0 km/h (0 Bft)
08.06.2016 20:05 15,5 C 15,8 C 73 % 1018,1 hPa 0,0 mm 0,9 km/h (0 Bft) N-NW 337 0 min 10,7 C 0,0 km/h (0 Bft)
08.06.2016 20:10 15,4 C 15,6 C 73 % 1018,2 hPa 0,0 mm 0,3 km/h (0 Bft) W-NW 292 0 min 10,6 C 6,0 km/h (2 Bft)
08.06.2016 20:15 15,3 C 15,4 C 73 % 1018,2 hPa 0,0 mm 0,3 km/h (0 Bft) NW 315 0 min 10,5 C 0,0 km/h (0 Bft)
08.06.2016 20:20 15,3 C 15,4 C 74 % 1018,2 hPa 0,0 mm 1,8 km/h (1 Bft) NW 315 0 min 10,7 C 0,0 km/h (0 Bft)
08.06.2016 20:23 15,3 C 15,4 C 74 % 1018,2 hPa 0,0 mm 1,8 km/h (1 Bft) N-NW 337 0 min 10,7 C 0,0 km/h (0 Bft)
08.06.2016 20:25 15,3 C 15,4 C 74 % 1018,2 hPa 0,0 mm 1,8 km/h (1 Bft) N-NW 337 0 min 10,7 C 0,0 km/h (0 Bft)
08.06.2016 20:30 15,2 C 15,2 C 74 % 1018,3 hPa 0,0 mm 0,6 km/h (0 Bft) SW 225 0 min 10,6 C 0,0 km/h (0 Bft)
08.06.2016 20:35 15,2 C 15,2 C 74 % 1018,3 hPa 0,0 mm 1,8 km/h (1 Bft) W 270 0 min 10,6 C 15,8 km/h (3 Bft)
08.06.2016 20:40 15,2 C 15,1 C 74 % 1018,3 hPa 0,0 mm 5,7 km/h (1 Bft) NW 315 0 min 10,6 C 24,1 km/h (4 Bft)
08.06.2016 20:45 15,2 C 14,9 C 74 % 1018,3 hPa 0,0 mm 6,6 km/h (2 Bft) S-SO 157 0 min 10,6 C 0,0 km/h (0 Bft)
08.06.2016 20:50 15,2 C 14,6 C 74 % 1018,2 hPa 0,0 mm 3,3 km/h (1 Bft) W-SW 247 0 min 10,6 C 13,4 km/h (3 Bft)
08.06.2016 20:55 15,2 C 14,5 C 74 % 1018,2 hPa 0,0 mm 1,8 km/h (1 Bft) NW 315 0 min 10,6 C 0,0 km/h (0 Bft)
08.06.2016 21:00 15,2 C 14,3 C 74 % 1018,2 hPa 0,0 mm 4,2 km/h (1 Bft) O-NO 67 0 min 10,6 C 7,7 km/h (2 Bft)
08.06.2016 21:05 15,2 C 14,0 C 74 % 1018,2 hPa 0,0 mm 3,9 km/h (1 Bft) NW 315 0 min 10,6 C 0,0 km/h (0 Bft)
08.06.2016 21:10 15,2 C 13,8 C 74 % 1018,1 hPa 0,0 mm 1,8 km/h (1 Bft) S 180 0 min 10,6 C 0,0 km/h (0 Bft)
08.06.2016 21:15 14,1 C 13,7 C 77 % 1018,1 hPa 0,0 mm 0,3 km/h (0 Bft) S 180 0 min 10,1 C 0,0 km/h (0 Bft)
08.06.2016 21:20 13,9 C 13,5 C 78 % 1018,1 hPa 0,7 mm 0,0 km/h (0 Bft) S 180 0 min 10,1 C 0,0 km/h (0 Bft)
08.06.2016 21:25 13,9 C 13,4 C 78 % 1018,1 hPa 0,0 mm 0,0 km/h (0 Bft) W-NW 292 0 min 10,1 C 0,0 km/h (0 Bft)
08.06.2016 21:30 13,7 C 13,3 C 79 % 1018,1 hPa 0,0 mm 0,0 km/h (0 Bft) S 180 0 min 10,1 C 0,0 km/h (0 Bft)
08.06.2016 21:35 13,6 C 13,2 C 79 % 1018,1 hPa 0,0 mm 0,0 km/h (0 Bft) SW 225 0 min 10,0 C 0,0 km/h (0 Bft)
08.06.2016 21:40 13,6 C 13,2 C 80 % 1018,1 hPa 0,0 mm 0,6 km/h (0 Bft) SW 225 0 min 10,2 C 6,0 km/h (2 Bft)
08.06.2016 21:45 13,5 C 13,1 C 80 % 1018,1 hPa 0,0 mm 0,6 km/h (0 Bft) SW 225 0 min 10,1 C 0,0 km/h (0 Bft)
08.06.2016 21:50 13,5 C 13,2 C 80 % 1018,0 hPa 0,0 mm 0,3 km/h (0 Bft) S-SO 157 0 min 10,1 C 0,0 km/h (0 Bft)
08.06.2016 21:55 13,5 C 13,2 C 81 % 1018,0 hPa 0,0 mm 0,0 km/h (0 Bft) W-SW 247 0 min 10,3 C 0,0 km/h (0 Bft)
08.06.2016 22:00 13,4 C 13,2 C 81 % 1018,0 hPa 0,0 mm 0,0 km/h (0 Bft) S 180 0 min 10,2 C 0,0 km/h (0 Bft)
08.06.2016 22:05 13,4 C 13,1 C 81 % 1018,0 hPa 0,0 mm 0,0 km/h (0 Bft) SO 135 0 min 10,2 C 0,0 km/h (0 Bft)
08.06.2016 22:10 13,4 C 13,1 C 81 % 1018,1 hPa 0,0 mm 0,0 km/h (0 Bft) W 270 0 min 10,2 C 0,0 km/h (0 Bft)
08.06.2016 22:15 13,4 C 13,1 C 81 % 1018,1 hPa 0,0 mm 0,0 km/h (0 Bft) S-SO 157 0 min 10,2 C 0,0 km/h (0 Bft)
08.06.2016 22:20 13,3 C 13,1 C 82 % 1018,1 hPa 0,0 mm 0,6 km/h (0 Bft) S 180 0 min 10,3 C 0,0 km/h (0 Bft)
08.06.2016 22:25 13,2 C 13,0 C 82 % 1018,1 hPa 0,0 mm 1,2 km/h (1 Bft) N-NO 22 0 min 10,2 C 0,0 km/h (0 Bft)
08.06.2016 22:30 13,1 C 12,9 C 82 % 1018,0 hPa 0,0 mm 0,9 km/h (0 Bft) S-SW 202 0 min 10,1 C 0,0 km/h (0 Bft)
08.06.2016 22:35 13,1 C 12,8 C 82 % 1018,0 hPa 0,0 mm 1,2 km/h (1 Bft) N-NW 337 0 min 10,1 C 0,0 km/h (0 Bft)
08.06.2016 22:40 13,0 C 12,7 C 82 % 1018,0 hPa 0,7 mm 2,4 km/h (1 Bft) S-SW 202 0 min 10,0 C 0,0 km/h (0 Bft)
08.06.2016 22:45 13,0 C 12,7 C 82 % 1018,0 hPa 0,0 mm 1,2 km/h (1 Bft) NW 315 0 min 10,0 C 0,0 km/h (0 Bft)
08.06.2016 22:50 12,9 C 12,7 C 83 % 1017,8 hPa 0,0 mm 0,6 km/h (0 Bft) S 180 0 min 10,1 C 0,0 km/h (0 Bft)
08.06.2016 22:55 12,8 C 12,6 C 83 % 1017,8 hPa 0,0 mm 0,9 km/h (0 Bft) W-NW 292 0 min 10,0 C 0,0 km/h (0 Bft)
08.06.2016 23:00 12,8 C 12,6 C 83 % 1017,8 hPa 0,0 mm 2,1 km/h (1 Bft) S 180 0 min 10,0 C 5,7 km/h (1 Bft)
08.06.2016 23:05 12,8 C 12,6 C 83 % 1017,8 hPa 0,0 mm 2,4 km/h (1 Bft) S-SW 202 0 min 10,0 C 0,0 km/h (0 Bft)
08.06.2016 23:10 12,8 C 12,6 C 84 % 1017,7 hPa 0,0 mm 2,1 km/h (1 Bft) W-NW 292 0 min 10,2 C 0,0 km/h (0 Bft)
08.06.2016 23:15 12,8 C 12,6 C 84 % 1017,7 hPa 0,0 mm 1,2 km/h (1 Bft) W-NW 292 0 min 10,2 C 3,9 km/h (1 Bft)
08.06.2016 23:20 12,8 C 12,6 C 84 % 1017,7 hPa 0,0 mm 0,0 km/h (0 Bft) W-NW 292 0 min 10,2 C 0,0 km/h (0 Bft)
08.06.2016 23:23 12,7 C 12,5 C 84 % 1017,7 hPa 0,0 mm 0,3 km/h (0 Bft) S-SW 202 0 min 10,1 C 0,0 km/h (0 Bft)
08.06.2016 23:26 12,7 C 12,5 C 84 % 1017,7 hPa 0,0 mm 0,3 km/h (0 Bft) S-SW 202 0 min 10,1 C 0,0 km/h (0 Bft)
08.06.2016 23:30 12,6 C 12,4 C 84 % 1017,8 hPa 0,7 mm 0,3 km/h (0 Bft) S 180 0 min 10,0 C 6,6 km/h (2 Bft)
08.06.2016 23:35 12,6 C 12,4 C 84 % 1017,8 hPa 0,7 mm 1,8 km/h (1 Bft) SO 135 0 min 10,0 C 0,0 km/h (0 Bft)
08.06.2016 23:40 12,6 C 12,4 C 84 % 1017,8 hPa 0,0 mm 1,8 km/h (1 Bft) W-SW 247 0 min 10,0 C 0,0 km/h (0 Bft)
08.06.2016 23:45 12,6 C 12,4 C 84 % 1017,8 hPa 0,0 mm 0,0 km/h (0 Bft) SO 135 0 min 10,0 C 0,0 km/h (0 Bft)
08.06.2016 23:50 12,6 C 12,4 C 84 % 1017,7 hPa 0,0 mm 0,0 km/h (0 Bft) S-SO 157 0 min 10,0 C 0,0 km/h (0 Bft)
08.06.2016 23:55 12,6 C 12,4 C 84 % 1017,7 hPa 0,0 mm 0,0 km/h (0 Bft) N-NW 337 0 min 10,0 C 0,0 km/h (0 Bft)
_ Min-Zeit 00:50 00:50 16:15 23:55 - 23:55 - - - 00:50 23:55
Minimum _ 12,0 C 11,6 C 68 % 1017,7 hPa - 0,0 km/h (0 Bft) - - - 8,8 C 0,0 km/h (0 Bft)
_ Max-Zeit 14:40 14:40 23:55 00:25 23:30 18:50 - - 15:55 14:35 20:40
Maximum _ 18,9 C 25,1 C 84 % 1021,5 hPa 0,7 mm 11,9 km/h
W-SW (2 Bft)
- - 5 min 13,9 C 24,1 km/h
NW (4 Bft)
Durchschnitt _ 14,7 C 15,3 C 78 % 1019,8 hPa #6,2 mm 2,7 km/h (1 Bft) NW - #1:35 h 11,0 C 3,8 km/h (1 Bft)